EW9766 Weather Reports


time (UTC)temp
C
wind
direction
speed
KPH
gust
KPH
rain 1hr
cm
rain 24hr
cm
rain mn
cm
humidity
%
barometer
mb
20260509094534 6 156 8.0 16.1 0.00 0.00 0.00 79 1022.2
20260509093149 6 152 9.7 14.5 0.00 0.00 0.00 78 1022.3
20260509090035 7 142 9.7 16.1 0.00 0.00 0.00 78 1022.5
20260509084650 7 141 4.8 12.9 0.00 0.00 0.00 78 1022.8
20260509083038 7 134 9.7 17.7 0.00 0.00 0.00 78 1022.9
20260509081532 7 138 9.7 17.7 0.00 0.00 0.00 79 1023.1
20260509080035 7 137 6.4 14.5 0.00 0.00 0.00 79 1023.2
20260509074532 6 135 6.4 11.3 0.00 0.00 0.00 79 1023.4
20260509073033 6 150 6.4 14.5 0.00 0.00 0.00 79 1023.5
20260509071531 6 170 6.4 12.9 0.00 0.00 0.00 78 1023.5
20260509070032 6 181 6.4 9.7 0.00 0.00 0.00 77 1023.5
20260509064531 7 181 6.4 8.0 0.00 0.00 0.00 75 1023.6
20260509063031 7 165 3.2 6.4 0.00 0.00 0.00 73 1023.6
20260509061652 9 104 1.6 6.4 0.00 0.00 0.00 71 1023.6
20260509061642 10 72 4.8 8.0 0.00 0.00 0.00 71 1023.6
20260509051530 10 56 4.8 11.3 0.00 0.00 0.00 71 1023.4
20260509050035 10 72 3.2 8.0 0.00 0.00 0.00 69 1023.3
20260509044536 10 15 4.8 12.9 0.00 0.00 0.00 68 1023.1
20260509043036 10 325 6.4 11.3 0.00 0.00 0.00 66 1023.1
20260509041643 11 303 4.8 11.3 0.00 0.00 0.00 64 1022.9
20260509040028 11 281 6.4 17.7 0.00 0.00 0.00 64 1022.6
20260509034530 11 280 9.7 24.1 0.00 0.00 0.00 62 1022.4
20260509033032 12 275 9.7 20.9 0.00 0.00 0.00 61 1022.2
20260509031536 12 272 9.7 19.3 0.00 0.00 0.00 59 1022.1
20260509030029 12 275 9.7 25.7 0.00 0.00 0.00 57 1021.9
20260509024643 13 268 11.3 29.0 0.00 0.00 0.00 54 1021.8
20260509023051 14 262 11.3 29.0 0.00 0.00 0.00 51 1021.6
20260509021532 14 257 11.3 29.0 0.00 0.00 0.00 48 1021.6
20260509014529 16 235 11.3 32.2 0.00 0.00 0.00 45 1021.5
20260509013032 16 236 14.5 32.2 0.00 0.00 0.00 43 1021.4
20260509011531 16 239 14.5 35.4 0.00 0.00 0.00 41 1021.4
20260509010035 17 226 14.5 35.4 0.00 0.00 0.00 40 1021.4
20260509004530 17 236 11.3 32.2 0.00 0.00 0.00 39 1021.4
20260509003032 17 223 12.9 30.6 0.00 0.00 0.00 38 1021.4
20260509001536 18 270 14.5 32.2 0.00 0.00 0.00 36 1021.1
20260508234535 18 265 14.5 38.6 0.00 0.00 0.00 35 1020.8
20260508233036 19 261 9.7 25.7 0.00 0.00 0.00 34 1020.9
20260508231537 19 262 9.7 29.0 0.00 0.00 0.00 32 1020.8
20260508230031 19 263 14.5 32.2 0.00 0.00 0.00 31 1020.6
20260508224643 20 269 11.3 33.8 0.00 0.00 0.00 29 1020.7
20260508223033 20 250 8.0 22.5 0.00 0.00 0.00 28 1020.6
20260508220033 20 255 9.7 24.1 0.00 0.00 0.00 26 1020.5
20260508213033 21 258 9.7 35.4 0.00 0.00 0.00 25 1020.4
20260508211535 21 276 9.7 29.0 0.00 0.00 0.00 24 1020.3
20260508204534 20 272 9.7 20.9 0.00 0.00 0.00 22 1020.2
20260508203037 20 247 11.3 38.6 0.00 0.00 0.00 23 1020.1
20260508201537 19 257 12.9 35.4 0.00 0.00 0.00 24 1020.0
20260508191535 18 227 19.3 45.1 0.00 0.00 0.00 24 1020.0
20260508183032 14 330 8.0 16.1 0.00 0.00 0.00 54 1019.9
20260508181531 12 349 4.8 11.3 0.00 0.00 0.00 60 1019.9
20260508174535 11 326 3.2 8.0 0.00 0.00 0.00 63 1020.0
20260508171531 11 360 3.2 6.4 0.00 0.00 0.00 64 1019.6
20260508170029 11 321 1.6 9.7 0.00 0.00 0.00 65 1019.6
20260508164536 11 334 3.2 9.7 0.00 0.00 0.00 65 1019.5
20260508163035 11 8 8.0 12.9 0.00 0.00 0.00 65 1019.7
20260508161531 11 352 12.9 20.9 0.00 0.00 0.00 65 1019.6
20260508160032 12 2 12.9 22.5 0.00 0.00 0.00 65 1019.5
20260508154608 12 1 14.5 25.7 0.00 0.00 0.00 65 1019.3
20260508153031 13 355 12.9 25.7 0.00 0.00 0.00 63 1019.1
20260508150034 12 347 1.6 9.7 0.00 0.00 0.00 65 1019.0
20260508143031 9 66 0.0 6.4 0.00 0.00 0.00 68 1018.6
20260508141528 8 130 3.2 8.0 0.00 0.00 0.00 68 1018.4
20260508140031 8 132 4.8 9.7 0.00 0.00 0.00 67 1018.2
20260508134530 7 143 4.8 9.7 0.00 0.00 0.00 67 1018.2
20260508133034 7 142 4.8 9.7 0.00 0.00 0.00 67 1018.1
20260508131535 7 169 4.8 9.7 0.00 0.00 0.00 66 1017.9
20260508130033 6 122 3.2 9.7 0.00 0.00 0.00 66 1017.7
20260508124538 6 133 4.8 11.3 0.00 0.00 0.00 64 1017.8
20260508123034 6 159 4.8 9.7 0.00 0.00 0.00 63 1017.8
20260508121531 5 159 4.8 11.3 0.00 0.00 0.00 63 1017.6
20260508120031 6 152 3.2 8.0 0.00 0.00 0.00 62 1017.6
20260508114532 6 143 4.8 9.7 0.00 0.00 0.00 58 1017.6
20260508113107 6 165 4.8 11.3 0.00 0.00 0.00 55 1017.5
20260508111535 7 162 4.8 9.7 0.00 0.00 0.00 55 1017.4
20260508110107 7 141 6.4 11.3 0.00 0.00 0.00 54 1017.3
20260508103151 6 138 9.7 16.1 0.00 0.00 0.00 56 1017.3
20260508103142 6 145 8.0 12.9 0.00 0.00 0.00 57 1017.4
20260508100032 6 142 8.0 12.9 0.00 0.00 0.00 57 1017.3